Location: Newark
(13.9174°N, 1.2431°E)
Time: 01:49:00
(UTC+00:00)

OTV 5 (USA 277) - Visible Passes

Search period start: 16 October 2019 00:00
Search period end: 26 October 2019 00:00
Orbit: 310 x 324 km, 54.5° (Epoch: 08 October)

Date Brightness Start Highest point End Pass type
(mag) Time Alt. Az. Time Alt. Az. Time Alt. Az.
21 Oct ? 05:25:47 10° NE 05:26:11 10° NE 05:26:35 10° ENE visible
22 Oct ? 18:38:43 10° S 18:40:01 21° SSE 18:40:01 21° SSE visible
23 Oct ? 18:53:01 10° SW 18:55:13 39° W 18:55:13 39° W visible
24 Oct ? 04:34:00 13° N 04:35:37 20° NE 04:37:40 10° ESE visible
24 Oct ? 19:09:37 10° WNW 19:10:12 10° NW 19:10:22 10° NW visible
25 Oct ? 04:49:12 36° NW 04:50:07 76° WSW 04:52:48 10° SSE visible
25 Oct ? 17:47:47 10° SSW 17:50:28 73° ESE 17:53:10 10° NE visible
